This is the latest recevied weather packets stored in our database for station/object KC8BSD. If no packets are shown the sender has not sent any weather packets the latest 10 day(s).
| Time | Temp. | Humidity | Pressure | Rain* | Wind** | Luminosity | Snow |
|---|---|---|---|---|---|---|---|
| 1777722535 | 2.78° C | 71% | 1019.2 hPa | 0 mm | - | 85 W/m² | - |
| 1777722232 | 2.78° C | 71% | 1019.3 hPa | 0 mm | - | 69 W/m² | - |
| 1777721930 | 2.78° C | 72% | 1019.1 hPa | 0 mm | - | 45 W/m² | - |
| 1777721627 | 2.22° C | 72% | 1019.2 hPa | 0 mm | - | 39 W/m² | - |
| 1777721325 | 2.22° C | 73% | 1019.2 hPa | 0 mm | - | 34 W/m² | - |
| 1777721022 | 1.67° C | 74% | 1019.1 hPa | 0 mm | - | 31 W/m² | - |
| 1777720720 | 1.67° C | 76% | 1019.1 hPa | 0 mm | - | 26 W/m² | - |
| 1777720417 | 1.11° C | 76% | 1019 hPa | 0 mm | - | 21 W/m² | - |
| 1777720115 | 1.11° C | 77% | 1018.7 hPa | 0 mm | - | 18 W/m² | - |
| 1777719812 | 1.11° C | 77% | 1018.9 hPa | 0 mm | - | 16 W/m² | - |
| 1777719509 | 1.11° C | 77% | 1018.9 hPa | 0 mm | - | 15 W/m² | - |
| 1777719207 | 1.11° C | 78% | 1019.1 hPa | 0 mm | - | 12 W/m² | - |
| 1777718904 | 0.56° C | 78% | 1019 hPa | 0 mm | - | 10 W/m² | - |
| 1777718601 | 0.56° C | 78% | 1019.1 hPa | 0 mm | - | 6 W/m² | - |
| 1777718299 | 0.56° C | 79% | 1018.8 hPa | 0 mm | - | 4 W/m² | - |
| 1777717996 | 0.56° C | 79% | 1018.9 hPa | 0 mm | - | 2 W/m² | - |
| 1777717693 | 0.56° C | 78% | 1018.8 hPa | 0 mm | - | 1 W/m² | - |
| 1777717389 | 0.56° C | 77% | 1018.7 hPa | 0 mm | - | 0 W/m² | - |
| 1777717087 | 1.11° C | 76% | 1018.8 hPa | 0 mm | - | 0 W/m² | - |
| 1777716785 | 1.11° C | 76% | 1018.8 hPa | 0 mm | - | 0 W/m² | - |
| 1777716483 | 1.11° C | 76% | 1018.7 hPa | 0 mm | - | 0 W/m² | - |
| 1777716182 | 1.67° C | 75% | 1018.8 hPa | 0 mm | - | 0 W/m² | - |
| 1777715879 | 1.67° C | 74% | 1018.5 hPa | 0 mm | - | 0 W/m² | - |
| 1777715577 | 1.67° C | 74% | 1018.8 hPa | 0 mm | - | 0 W/m² | - |
| 1777715274 | 1.67° C | 74% | 1018.7 hPa | 0 mm | - | 0 W/m² | - |
* Rain latest hour (hover to see other rain measurements)
** Current wind speed in m/s (hover to see current wind gust speed)